Home   Weather   Førde   Past weeks

Flag for Norway Past Weather in Førde, Norway — Yesterday and Last 2 Weeks

Now
32 °F

Scattered clouds.


Feels Like: 22 °F
Forecast: 24 / 42 °F
Wind: 13 mph from Northwest

Location: Forde / Bringeland

Current Time: Apr 24, 2017 at 11:43:28 am

Latest Report: Apr 24, 2017 at 11:20 am


Visibility: N/A

Pressure: 29.53 "Hg

Humidity: 75%

Dew Point: 25 °F

Location of FørdeLocation

Past Weather in Førde — Graph

°F

Førde Temperature Yesterday

Maximum temperature yesterday: 36 °F (at 1:20 pm)
Minimum temperature yesterday: 32 °F (at 5:20 pm)
Average temperature yesterday: 33 °F

High & Low Weather Summary for the Past Weeks

 TemperatureHumidityPressure
High46 °F (Apr 18, 3:20 pm)100% (Apr 10, 5:50 am)30.51 "Hg (Apr 10, 5:50 am)
Low27 °F (Apr 18, 6:20 am)45% (Apr 13, 4:50 pm)29.39 "Hg (Apr 12, 4:50 pm)
Average37 °F82%29.87 "Hg
* Reported Apr 9 11:20 am — Apr 24 9:50 am, Førde, Weather by CustomWeather, © 2017

Note: Actual official high and low records may vary slightly from our data, if they occured in-between our weather recording intervals... More about our weather records

Advertising

Førde Weather History for the Previous 24 Hours

Scroll right to see more
 ConditionsComfort  
Time TempWeatherWind HumidityBarometerVisibility
9:50 am
Mon, Apr 24
32 °FScattered clouds.13 mph75%29.53 "HgN/A
8:50 am30 °FScattered clouds.13 mph75%29.53 "HgN/A
7:50 am28 °FScattered clouds.9 mph86%29.53 "HgN/A
6:50 am30 °FScattered clouds.13 mph80%29.53 "HgN/A
5:50 am30 °FScattered clouds.14 mph80%29.53 "HgN/A
11:20 pm
Sun, Apr 23
32 °FLight snow. Passing clouds.5 mph93%29.65 "HgN/A
10:50 pm32 °FLight snow. Partly cloudy.3 mph93%29.68 "Hg3 mi
9:50 pm32 °FSnow flurries. Partly cloudy.2 mph93%29.71 "Hg4 mi
8:50 pm32 °FLight snow. Fog.3 mph93%29.71 "Hg3 mi
8:20 pm32 °FLight snow. Fog.5 mph93%29.74 "Hg2 mi
7:50 pm32 °FLight snow. Ice fog.6 mph93%29.74 "Hg3 mi
7:20 pm32 °FLight snow. Ice fog.3 mph100%29.77 "Hg2 mi
6:50 pm32 °FSnow showers. Ice fog.5 mph100%29.77 "Hg2 mi
6:20 pm32 °FSnow showers. Ice fog.1 mph93%29.80 "Hg2 mi
5:50 pm32 °FSnow showers. Ice fog.1 mph93%29.83 "Hg2 mi
5:20 pm32 °FSnow showers. Dense fog.3 mph93%29.83 "Hg1 mi
4:50 pm34 °FSnow showers. Fog.3 mph87%29.83 "HgN/A
3:20 pm36 °FScattered showers. Broken clouds.7 mph75%29.89 "HgN/A
2:50 pm36 °FScattered showers. Broken clouds.8 mph81%29.89 "HgN/A
1:50 pm36 °FSprinkles. Broken clouds.10 mph81%29.92 "Hg5 mi
1:20 pm36 °FSprinkles. Broken clouds.8 mph70%29.92 "HgN/A
Weather by CustomWeather, © 2017

See weather overviewHow to use our weather pages